Regional Weather Roundup
Issued by NWS Huntsville, AL

Home | Current Version | Previous Version | Text Only | Print | Product List | Glossary On
Versions: 1 2 3 4 5 6 7 8 9 10 11 12 13 14 15 16 17 18 19 20 21 22 23 24 25 26 27 28 29 30 31 32 33 34 35 36 37 38 39 40 41 42 43 44 45 46 47 48 49 50
000
ASUS44 KHUN 050110
RWRHUN

WEATHER ROUNDUP FOR THE TENNESSEE VALLEY
NATIONAL WEATHER SERVICE HUNTSVILLE AL
800 PM CDT MON MAY 04 2015

ALZ001>004-050200-
NORTHWEST ALABAMA

CITY           SKY/WX    TMP DP  RH WIND       PRES   REMARKS
COURTLAND HCN    N/A     73 N/A N/A S5          N/A
RUSSELLVILLE     N/A     66 N/A N/A MISG        N/A
SHOALS AIRPORT PTCLDY    71  58  63 CALM      30.21R
SHOALS TVA RES   N/A     72 N/A N/A MISG        N/A
$$

ALZ005>007-016-050200-
NORTH CENTRAL ALABAMA

CITY           SKY/WX    TMP DP  RH WIND       PRES   REMARKS
CULLMAN AG STN   N/A     66 N/A N/A CALM        N/A
DECATUR AP     CLEAR     68  56  65 SE5       30.21R
HUNTSVILLE AP  CLEAR     75  53  46 S5        30.21R
HUN NWS/UAH      N/A     74  51  44 SE2         N/A
MERIDIANVILLE  CLEAR     68  50  52 CALM      30.23R
REDSTONE ARSN  CLEAR     73  53  50 SE2       30.21R
VINEMONT AP    FAIR      66  56  68 CALM      30.25R
$$

ALZ008>010-050200-
NORTHEAST ALABAMA

CITY           SKY/WX    TMP DP  RH WIND       PRES   REMARKS
ALBERTVILLE    CLEAR     70  57  64 SE3       30.23R
FORT PAYNE     CLEAR     64  52  63 CALM      30.23R
SCOTTSBORO HCN   N/A     68 N/A N/A MISG        N/A
VALLEY HEAD      N/A     66 N/A N/A MISG        N/A
$$

TNZ076-096-097-050200-
SOUTHEASTERN MIDDLE TENNESSEE

CITY           SKY/WX    TMP DP  RH WIND       PRES   REMARKS
TULLAHOMA      CLEAR     68  52  56 CALM      30.25R
WINCHESTER     CLEAR     68  55  64 CALM      30.24R
$$

...SURROUNDING SITES...

CITY           SKY/WX    TMP DP  RH WIND       PRES   REMARKS
ATLANTA        PTCLDY    73  51  46 S6        30.26R
ANNISTON       PTCLDY    70  59  68 CALM      30.23R
BIRMINGHAM     PTCLDY    73  55  53 E3        30.24R
CHATTANOOGA    PTCLDY    71  53  52 CALM      30.23R
CORINTH        FAIR      72  54  53 S3        30.17R
DALTON         CLEAR     68  55  64 CALM      30.24R
GADSDEN        CLEAR    N/A N/A N/A CALM      30.21R
GOLDEN TRNGL   CLEAR     75  52  43 SE7       30.17S
HALEYVILLE       N/A     66  59  78 MISG      30.24R
JACKSON TN     CLEAR     68  53  58 SE3       30.16S
LEWISBURG      FAIR      70  53  54 CALM      30.21R
MEMPHIS        PTCLDY    77  54  44 S6        30.14S
NASHVILLE      PTCLDY    74  54  49 S3        30.20R
OXFORD MS      LGT RAIN  72  55  56 SE5       30.18R
ROME           CLEAR     70  57  63 CALM      30.22R
SAVANNAH       CLEAR     68  32  26 CALM      30.19R
TUPELO         CLEAR     76  50  40 S6        30.17S
TUSCALOOSA     CLEAR     73  58  59 SE5       30.20R
$$

...GULF COAST WEATHER...

CITY           SKY/WX    TMP DP  RH WIND       PRES   REMARKS
GULFPORT       PTCLDY    74  63  68 SE10      30.16S
PASCAGOULA     PTCLDY    67  62  84 CALM      30.17F
MOBILE         PTCLDY    70  58  65 SE6       30.18F
GULF SHORES    CLEAR     69  61  77 SE5       30.18F
PENSACOLA      PTCLDY    73  61  65 SE8       30.18F
DESTIN         PTCLDY    74  62  66 S5        30.19F
PANAMA CITY    CLEAR     70  62  76 S2        30.19R
APPALACHICOLA  PTCLDY    73  60  63 CALM      30.19R
$$




USA.gov is the U.S. government's official web portal to all federal, state and local government web resources and services.